Location: Unspecified
(0.0000°N, 0.0000°E)
Time: 17:56:58
(UTC+00:00)

LEMUR 2 GREENBERG - Visible Passes

Search period start: 14 January 2026 00:00
Search period end: 24 January 2026 00:00
Orbit: 483 x 495 km, 97.4° (Epoch: 13 January)

Date Brightness Start Highest point End Pass type
(mag) Time Alt. Az. Time Alt. Az. Time Alt. Az.
14 Jan ? 04:42:01 10° ESE 04:44:09 15° E 04:46:16 10° NE visible
16 Jan ? 05:27:42 10° S 05:31:21 86° WSW 05:34:59 10° NNW visible
17 Jan ? 05:04:56 10° SSE 05:08:18 36° E 05:11:40 10° NNE visible
18 Jan ? 04:43:01 10° ESE 04:45:14 15° E 04:47:27 10° NE visible
20 Jan ? 05:28:40 10° S 05:32:18 82° W 05:35:56 10° NNW visible
21 Jan ? 05:05:48 10° SSE 05:09:12 37° ENE 05:12:33 10° N visible
22 Jan ? 04:43:45 10° ESE 04:46:02 16° E 04:48:19 10° NE visible
